| time (UTC) | temp F | wind direction | speed knots | gust knots | rain 1hr in | rain 24hr in | rain mn in | humidity % | barometer mb |
| 20260831125602 | 72 | 5 | 0.9 | 3.5 | 0.00 | 0.00 | 0.00 | 88 | 1020.6 |
| 20260831125041 | 72 | 5 | 1.7 | 3.5 | 0.00 | 0.00 | 0.00 | 88 | 1020.6 |
| 20260831124538 | 72 | 297 | 2.6 | 3.5 | 0.00 | 0.00 | 0.00 | 88 | 1020.7 |
| 20260831124104 | 72 | 323 | 2.6 | 3.5 | 0.00 | 0.00 | 0.00 | 88 | 1020.5 |
| 20260831123539 | 72 | 128 | 1.7 | 3.5 | 0.00 | 0.00 | 0.00 | 88 | 1020.5 |
| 20260831123037 | 72 | 128 | 0.0 | 3.5 | 0.00 | 0.00 | 0.00 | 89 | 1020.4 |
| 20260831122559 | 72 | 128 | 1.7 | 3.5 | 0.00 | 0.00 | 0.00 | 89 | 1020.6 |
| 20260831122103 | 71 | 128 | 1.7 | 2.6 | 0.00 | 0.00 | 0.00 | 89 | 1020.6 |
| 20260831121540 | 71 | 128 | 0.9 | 1.7 | 0.00 | 0.00 | 0.00 | 89 | 1020.5 |
| 20260831121039 | 71 | 128 | 0.9 | 1.7 | 0.00 | 0.00 | 0.00 | 89 | 1020.4 |
| 20260831120536 | 71 | 128 | 0.0 | 2.6 | 0.00 | 0.00 | 0.00 | 89 | 1020.4 |
| 20260831120040 | 71 | 128 | 0.0 | 3.5 | 0.00 | 0.00 | 0.00 | 89 | 1020.1 |
| 20260831115535 | 71 | 137 | 1.7 | 4.3 | 0.00 | 0.00 | 0.00 | 89 | 1020.0 |
| 20260831115033 | 71 | 120 | 2.6 | 4.3 | 0.00 | 0.00 | 0.00 | 90 | 1020.1 |
| 20260831114530 | 71 | 55 | 0.0 | 3.5 | 0.00 | 0.00 | 0.00 | 90 | 1020.3 |
| 20260831114055 | 71 | 55 | 1.7 | 3.5 | 0.00 | 0.00 | 0.00 | 90 | 1020.3 |
| 20260831113555 | 71 | 22 | 0.9 | 3.5 | 0.00 | 0.00 | 0.00 | 90 | 1020.3 |
| 20260831113033 | 71 | 22 | 1.7 | 2.6 | 0.00 | 0.00 | 0.00 | 90 | 1020.3 |
| 20260831112530 | 71 | 17 | 0.9 | 2.6 | 0.00 | 0.00 | 0.00 | 90 | 1020.2 |
| 20260831112030 | 71 | 44 | 0.9 | 3.5 | 0.00 | 0.00 | 0.00 | 90 | 1020.1 |
| 20260831111528 | 71 | 342 | 2.6 | 3.5 | 0.00 | 0.00 | 0.00 | 90 | 1020.1 |
| 20260831111027 | 71 | 12 | 1.7 | 5.2 | 0.00 | 0.00 | 0.00 | 90 | 1020.1 |
| 20260831110524 | 71 | 355 | 2.6 | 6.1 | 0.00 | 0.00 | 0.00 | 89 | 1020.1 |
| 20260831110043 | 71 | 5 | 1.7 | 4.3 | 0.00 | 0.00 | 0.00 | 89 | 1020.1 |
| 20260831105541 | 71 | 13 | 1.7 | 2.6 | 0.00 | 0.00 | 0.00 | 89 | 1019.9 |
| 20260831105040 | 71 | 13 | 0.9 | 2.6 | 0.00 | 0.00 | 0.00 | 89 | 1019.8 |
| 20260831104603 | 71 | 13 | 0.9 | 2.6 | 0.00 | 0.00 | 0.00 | 89 | 1019.8 |
| 20260831104025 | 71 | 13 | 0.9 | 2.6 | 0.00 | 0.00 | 0.00 | 89 | 1019.8 |
| 20260831103543 | 71 | 13 | 0.9 | 3.5 | 0.00 | 0.00 | 0.00 | 89 | 1019.7 |
| 20260831103041 | 70 | 13 | 0.9 | 3.5 | 0.00 | 0.00 | 0.00 | 89 | 1019.7 |
| 20260831102539 | 70 | 5 | 0.9 | 4.3 | 0.00 | 0.00 | 0.00 | 89 | 1019.6 |
| 20260831102038 | 71 | 15 | 1.7 | 4.3 | 0.00 | 0.00 | 0.00 | 89 | 1019.4 |
| 20260831101601 | 71 | 11 | 1.7 | 4.3 | 0.00 | 0.00 | 0.00 | 89 | 1019.4 |
| 20260831101039 | 71 | 355 | 2.6 | 3.5 | 0.00 | 0.00 | 0.00 | 89 | 1019.4 |
| 20260831100559 | 71 | 10 | 1.7 | 3.5 | 0.00 | 0.00 | 0.00 | 88 | 1019.5 |
| 20260831100038 | 71 | 11 | 1.7 | 3.5 | 0.00 | 0.00 | 0.00 | 88 | 1019.4 |
| 20260831095534 | 71 | 47 | 0.0 | 2.6 | 0.00 | 0.00 | 0.00 | 88 | 1019.4 |
| 20260831095034 | 71 | 77 | 0.9 | 2.6 | 0.00 | 0.00 | 0.00 | 88 | 1019.5 |
| 20260831094531 | 71 | 340 | 0.9 | 2.6 | 0.00 | 0.00 | 0.00 | 88 | 1019.4 |
| 20260831094031 | 71 | 136 | 0.0 | 1.7 | 0.00 | 0.00 | 0.00 | 88 | 1019.4 |
| 20260831093547 | 71 | 136 | 0.0 | 0.9 | 0.00 | 0.00 | 0.00 | 88 | 1019.3 |
| 20260831093025 | 71 | 136 | 0.0 | 0.9 | 0.00 | 0.00 | 0.00 | 88 | 1019.2 |
| 20260831092541 | 71 | 136 | 0.0 | 0.0 | 0.00 | 0.00 | 0.00 | 88 | 1019.1 |
| 20260831092040 | 71 | 136 | 0.0 | 1.7 | 0.00 | 0.00 | 0.00 | 88 | 1019.2 |
| 20260831091602 | 71 | 136 | 0.0 | 1.7 | 0.00 | 0.00 | 0.00 | 88 | 1019.1 |
| 20260831091040 | 71 | 136 | 0.9 | 1.7 | 0.00 | 0.00 | 0.00 | 88 | 1019.2 |
| 20260831090541 | 71 | 136 | 0.0 | 1.7 | 0.00 | 0.00 | 0.00 | 88 | 1018.9 |
| 20260831090041 | 71 | 136 | 0.0 | 1.7 | 0.00 | 0.00 | 0.00 | 88 | 1018.8 |
| 20260831085538 | 71 | 136 | 0.9 | 1.7 | 0.00 | 0.00 | 0.00 | 88 | 1018.7 |
| 20260831085038 | 71 | 136 | 0.0 | 0.9 | 0.00 | 0.00 | 0.00 | 87 | 1018.8 |
| 20260831084534 | 71 | 136 | 0.0 | 1.7 | 0.00 | 0.00 | 0.00 | 87 | 1018.6 |
| 20260831084058 | 71 | 136 | 0.0 | 1.7 | 0.00 | 0.00 | 0.00 | 87 | 1018.6 |
| 20260831083534 | 71 | 136 | 0.9 | 2.6 | 0.00 | 0.00 | 0.00 | 87 | 1018.7 |
| 20260831083033 | 71 | 136 | 0.9 | 1.7 | 0.00 | 0.00 | 0.00 | 87 | 1018.9 |
| 20260831082529 | 71 | 136 | 0.0 | 4.3 | 0.00 | 0.00 | 0.00 | 87 | 1018.9 |
| 20260831082054 | 71 | 136 | 1.7 | 4.3 | 0.00 | 0.00 | 0.00 | 87 | 1018.7 |
| 20260831081530 | 72 | 62 | 0.0 | 2.6 | 0.00 | 0.00 | 0.00 | 87 | 1018.6 |
| 20260831081030 | 71 | 62 | 1.7 | 2.6 | 0.00 | 0.00 | 0.00 | 87 | 1018.6 |
| 20260831080527 | 72 | 62 | 0.0 | 1.7 | 0.00 | 0.00 | 0.00 | 86 | 1018.6 |
| 20260831075532 | 72 | 62 | 0.9 | 2.6 | 0.00 | 0.00 | 0.00 | 86 | 1018.6 |
| 20260831075031 | 72 | 62 | 0.9 | 3.5 | 0.00 | 0.00 | 0.00 | 86 | 1018.7 |
| 20260831074552 | 72 | 62 | 0.9 | 3.5 | 0.00 | 0.00 | 0.00 | 85 | 1018.8 |
| 20260831074030 | 72 | 67 | 0.9 | 2.6 | 0.00 | 0.00 | 0.00 | 85 | 1018.8 |
| 20260831073531 | 72 | 303 | 0.9 | 2.6 | 0.00 | 0.00 | 0.00 | 85 | 1018.8 |
| 20260831073055 | 72 | 303 | 0.9 | 2.6 | 0.00 | 0.00 | 0.00 | 85 | 1018.8 |
| 20260831072556 | 72 | 303 | 0.0 | 2.6 | 0.00 | 0.00 | 0.00 | 85 | 1018.8 |
| 20260831072034 | 72 | 303 | 0.9 | 3.5 | 0.00 | 0.00 | 0.00 | 85 | 1018.9 |
| 20260831071532 | 73 | 318 | 1.7 | 3.5 | 0.00 | 0.00 | 0.00 | 84 | 1018.8 |
| 20260831071051 | 73 | 311 | 1.7 | 4.3 | 0.00 | 0.00 | 0.00 | 84 | 1018.9 |
| 20260831070531 | 73 | 355 | 3.5 | 5.2 | 0.00 | 0.00 | 0.00 | 83 | 1019.0 |
| 20260831070030 | 73 | 311 | 3.5 | 5.2 | 0.00 | 0.00 | 0.00 | 83 | 1018.9 |
| 20260831065527 | 73 | 325 | 1.7 | 3.5 | 0.00 | 0.00 | 0.00 | 83 | 1018.9 |
| 20260831065026 | 73 | 71 | 0.0 | 0.0 | 0.00 | 0.00 | 0.00 | 82 | 1018.8 |
| 20260831064544 | 73 | 71 | 0.0 | 2.6 | 0.00 | 0.00 | 0.00 | 83 | 1018.9 |
| 20260831064043 | 74 | 71 | 0.0 | 2.6 | 0.00 | 0.00 | 0.00 | 82 | 1018.7 |
| 20260831063540 | 74 | 71 | 0.9 | 2.6 | 0.00 | 0.00 | 0.00 | 82 | 1018.7 |
| 20260831063040 | 74 | 71 | 0.9 | 5.2 | 0.00 | 0.00 | 0.00 | 82 | 1018.7 |
| 20260831062536 | 74 | 71 | 0.9 | 5.2 | 0.00 | 0.00 | 0.00 | 82 | 1018.8 |
| 20260831062035 | 74 | 68 | 1.7 | 4.3 | 0.00 | 0.00 | 0.00 | 82 | 1018.9 |
| 20260831061532 | 74 | 27 | 2.6 | 5.2 | 0.00 | 0.00 | 0.00 | 82 | 1019.0 |
| 20260831061055 | 74 | 58 | 1.7 | 7.8 | 0.00 | 0.00 | 0.00 | 82 | 1019.1 |
| 20260831060533 | 74 | 24 | 2.6 | 7.8 | 0.00 | 0.00 | 0.00 | 82 | 1019.1 |
| 20260831060035 | 74 | 5 | 2.6 | 7.8 | 0.00 | 0.00 | 0.00 | 82 | 1019.2 |
| 20260831055531 | 74 | 355 | 3.5 | 7.8 | 0.00 | 0.00 | 0.00 | 82 | 1019.2 |
| 20260831055030 | 74 | 9 | 2.6 | 5.2 | 0.00 | 0.00 | 0.00 | 82 | 1019.2 |
| 20260831054529 | 74 | 19 | 2.6 | 5.2 | 0.00 | 0.00 | 0.00 | 82 | 1019.2 |
| 20260831054027 | 74 | 5 | 1.7 | 8.7 | 0.00 | 0.00 | 0.00 | 83 | 1019.4 |
| 20260831053525 | 74 | 44 | 3.5 | 6.1 | 0.00 | 0.00 | 0.00 | 83 | 1019.3 |
| 20260831053043 | 74 | 47 | 2.6 | 7.0 | 0.00 | 0.00 | 0.00 | 83 | 1019.3 |
| 20260831052539 | 74 | 30 | 1.7 | 7.8 | 0.00 | 0.00 | 0.00 | 83 | 1019.3 |
| 20260831052040 | 74 | 54 | 2.6 | 7.8 | 0.00 | 0.00 | 0.00 | 83 | 1019.4 |
| 20260831051537 | 74 | 26 | 2.6 | 7.8 | 0.00 | 0.00 | 0.00 | 83 | 1019.5 |
| 20260831051037 | 75 | 20 | 2.6 | 7.8 | 0.00 | 0.00 | 0.00 | 84 | 1019.5 |
| 20260831050534 | 75 | 355 | 3.5 | 9.6 | 0.00 | 0.00 | 0.00 | 84 | 1019.6 |
| 20260831050034 | 75 | 5 | 4.3 | 9.6 | 0.00 | 0.00 | 0.00 | 84 | 1019.5 |
| 20260831045531 | 75 | 15 | 2.6 | 7.0 | 0.00 | 0.00 | 0.00 | 84 | 1019.5 |
| 20260831045034 | 75 | 19 | 2.6 | 4.3 | 0.00 | 0.00 | 0.00 | 85 | 1019.5 |
| 20260831044532 | 75 | 349 | 1.7 | 3.5 | 0.00 | 0.00 | 0.00 | 85 | 1019.3 |
| 20260831044031 | 75 | 187 | 0.0 | 0.0 | 0.00 | 0.00 | 0.00 | 85 | 1019.1 |
| 20260831043549 | 75 | 187 | 0.0 | 0.0 | 0.00 | 0.00 | 0.00 | 85 | 1019.1 |
| 20260831043027 | 75 | 187 | 0.0 | 0.0 | 0.00 | 0.00 | 0.00 | 85 | 1019.1 |
| 20260831042524 | 75 | 187 | 0.0 | 0.0 | 0.00 | 0.00 | 0.00 | 85 | 1019.1 |
| 20260831042044 | 75 | 187 | 0.0 | 0.0 | 0.00 | 0.00 | 0.00 | 85 | 1019.1 |
| 20260831041540 | 75 | 187 | 0.0 | 0.9 | 0.00 | 0.00 | 0.00 | 85 | 1019.2 |
| 20260831041040 | 75 | 187 | 0.9 | 2.6 | 0.00 | 0.00 | 0.00 | 85 | 1019.3 |
| 20260831040537 | 75 | 187 | 0.0 | 2.6 | 0.00 | 0.00 | 0.00 | 84 | 1019.3 |
| 20260831040036 | 75 | 187 | 0.9 | 2.6 | 0.00 | 0.00 | 0.00 | 83 | 1019.3 |
| 20260831035534 | 75 | 187 | 1.7 | 2.6 | 0.00 | 0.00 | 0.00 | 83 | 1019.3 |
| 20260831035033 | 75 | 187 | 0.0 | 2.6 | 0.00 | 0.00 | 0.00 | 83 | 1019.3 |
| 20260831034531 | 76 | 187 | 0.9 | 2.6 | 0.00 | 0.00 | 0.00 | 83 | 1019.4 |
| 20260831034031 | 76 | 187 | 1.7 | 1.7 | 0.00 | 0.00 | 0.00 | 84 | 1019.6 |
| 20260831033531 | 76 | 187 | 0.0 | 0.9 | 0.00 | 0.00 | 0.00 | 84 | 1019.7 |
| 20260831033050 | 76 | 187 | 0.0 | 0.9 | 0.00 | 0.00 | 0.00 | 85 | 1019.8 |
| 20260831032525 | 76 | 187 | 0.0 | 1.7 | 0.00 | 0.00 | 0.00 | 85 | 1019.9 |
| 20260831032044 | 76 | 187 | 0.9 | 1.7 | 0.00 | 0.00 | 0.00 | 85 | 1019.8 |
| 20260831031541 | 76 | 187 | 0.0 | 0.9 | 0.00 | 0.00 | 0.00 | 86 | 1019.9 |
| 20260831031041 | 76 | 187 | 0.0 | 1.7 | 0.00 | 0.00 | 0.00 | 85 | 1019.7 |
| 20260831030537 | 76 | 187 | 0.0 | 2.6 | 0.00 | 0.00 | 0.00 | 85 | 1019.6 |
| 20260831030036 | 77 | 187 | 1.7 | 2.6 | 0.00 | 0.00 | 0.00 | 85 | 1019.6 |
| 20260831025535 | 77 | 187 | 1.7 | 2.6 | 0.00 | 0.00 | 0.00 | 85 | 1019.6 |
| 20260831025034 | 77 | 187 | 0.0 | 1.7 | 0.00 | 0.00 | 0.00 | 84 | 1019.7 |
| 20260831024531 | 77 | 187 | 0.0 | 1.7 | 0.00 | 0.00 | 0.00 | 84 | 1019.7 |
| 20260831024051 | 77 | 187 | 0.0 | 0.9 | 0.00 | 0.00 | 0.00 | 83 | 1019.8 |
| 20260831023547 | 77 | 187 | 0.0 | 0.9 | 0.00 | 0.00 | 0.00 | 82 | 1019.7 |
| 20260831023044 | 77 | 187 | 0.0 | 0.0 | 0.00 | 0.00 | 0.00 | 82 | 1019.8 |
| 20260831022541 | 78 | 187 | 0.0 | 0.0 | 0.00 | 0.00 | 0.00 | 83 | 1019.8 |
| 20260831022039 | 78 | 187 | 0.0 | 0.0 | 0.00 | 0.00 | 0.00 | 82 | 1019.7 |
| 20260831021537 | 78 | 187 | 0.0 | 0.0 | 0.00 | 0.00 | 0.00 | 81 | 1019.8 |
| 20260831021035 | 78 | 187 | 0.0 | 0.0 | 0.00 | 0.00 | 0.00 | 80 | 1019.8 |
| 20260831020558 | 78 | 187 | 0.0 | 0.0 | 0.00 | 0.00 | 0.00 | 79 | 1019.8 |
| 20260831020039 | 78 | 187 | 0.0 | 0.0 | 0.00 | 0.00 | 0.00 | 80 | 1019.7 |
| 20260831015535 | 78 | 187 | 0.0 | 0.0 | 0.00 | 0.00 | 0.00 | 79 | 1019.7 |
| 20260831015035 | 78 | 187 | 0.0 | 0.0 | 0.00 | 0.00 | 0.00 | 78 | 1019.7 |
| 20260831014533 | 78 | 187 | 0.0 | 0.0 | 0.00 | 0.00 | 0.00 | 78 | 1019.7 |
| 20260831014032 | 79 | 187 | 0.0 | 0.0 | 0.00 | 0.00 | 0.00 | 78 | 1019.7 |
| 20260831013529 | 79 | 187 | 0.0 | 0.0 | 0.00 | 0.00 | 0.00 | 77 | 1019.6 |
| 20260831013028 | 79 | 187 | 0.0 | 0.9 | 0.00 | 0.00 | 0.00 | 76 | 1019.6 |
| 20260831012525 | 79 | 187 | 0.0 | 0.9 | 0.00 | 0.00 | 0.00 | 76 | 1019.5 |
| 20260831012043 | 79 | 187 | 0.0 | 0.0 | 0.00 | 0.00 | 0.00 | 77 | 1019.5 |
| 20260831011539 | 79 | 187 | 0.0 | 1.7 | 0.00 | 0.00 | 0.00 | 76 | 1019.4 |
| 20260831011039 | 79 | 187 | 0.9 | 1.7 | 0.00 | 0.00 | 0.00 | 76 | 1019.3 |
| 20260831010534 | 79 | 187 | 0.0 | 0.0 | 0.00 | 0.00 | 0.00 | 77 | 1019.4 |
| 20260831010034 | 79 | 187 | 0.0 | 0.0 | 0.00 | 0.00 | 0.00 | 76 | 1019.3 |
| 20260831005530 | 79 | 187 | 0.0 | 0.0 | 0.00 | 0.00 | 0.00 | 76 | 1019.2 |
| 20260831005034 | 80 | 187 | 0.0 | 0.0 | 0.00 | 0.00 | 0.00 | 76 | 1019.1 |
| 20260831004531 | 80 | 187 | 0.0 | 0.0 | 0.00 | 0.00 | 0.00 | 76 | 1019.1 |
| 20260831004031 | 80 | 187 | 0.0 | 0.0 | 0.00 | 0.00 | 0.00 | 76 | 1019.1 |
| 20260831003528 | 80 | 187 | 0.0 | 0.0 | 0.00 | 0.00 | 0.00 | 75 | 1019.0 |
| 20260831003028 | 80 | 187 | 0.0 | 0.0 | 0.00 | 0.00 | 0.00 | 75 | 1018.9 |
| 20260831002545 | 80 | 187 | 0.0 | 0.0 | 0.00 | 0.00 | 0.00 | 75 | 1018.8 |
| 20260831002044 | 80 | 187 | 0.0 | 2.6 | 0.00 | 0.00 | 0.00 | 75 | 1018.7 |
| 20260831001541 | 80 | 187 | 0.9 | 2.6 | 0.00 | 0.00 | 0.00 | 75 | 1018.7 |
| 20260831001041 | 80 | 187 | 0.0 | 0.9 | 0.00 | 0.00 | 0.00 | 75 | 1018.7 |
| 20260831000538 | 80 | 187 | 0.0 | 0.9 | 0.00 | 0.00 | 0.00 | 74 | 1018.6 |
| 20260831000038 | 80 | 187 | 0.0 | 0.9 | 0.00 | 0.00 | 0.00 | 74 | 1018.5 |
| 20260830235533 | 80 | 187 | 0.0 | 0.9 | 0.00 | 0.00 | 0.00 | 74 | 1018.5 |
| 20260830235032 | 81 | 187 | 0.0 | 1.7 | 0.00 | 0.00 | 0.00 | 74 | 1018.4 |
| 20260830234529 | 81 | 187 | 0.9 | 1.7 | 0.00 | 0.00 | 0.00 | 73 | 1018.4 |
| 20260830234054 | 81 | 187 | 0.0 | 1.7 | 0.00 | 0.00 | 0.00 | 73 | 1018.4 |
| 20260830233556 | 81 | 187 | 0.0 | 1.7 | 0.00 | 0.00 | 0.00 | 72 | 1018.4 |
| 20260830233033 | 81 | 187 | 0.0 | 1.7 | 0.00 | 0.00 | 0.00 | 73 | 1018.3 |
| 20260830232534 | 81 | 187 | 0.9 | 2.6 | 0.00 | 0.00 | 0.00 | 72 | 1018.4 |
| 20260830232032 | 81 | 187 | 0.9 | 3.5 | 0.00 | 0.00 | 0.00 | 71 | 1018.4 |
| 20260830231550 | 81 | 187 | 1.7 | 3.5 | 0.00 | 0.00 | 0.00 | 71 | 1018.5 |
| 20260830231029 | 81 | 187 | 0.9 | 3.5 | 0.00 | 0.00 | 0.00 | 71 | 1018.5 |
| 20260830230543 | 82 | 187 | 1.7 | 4.3 | 0.00 | 0.00 | 0.00 | 70 | 1018.4 |
| 20260830230042 | 82 | 187 | 2.6 | 4.3 | 0.00 | 0.00 | 0.00 | 70 | 1018.3 |
| 20260830225541 | 82 | 187 | 1.7 | 4.3 | 0.00 | 0.00 | 0.00 | 69 | 1018.4 |
| 20260830225041 | 82 | 187 | 2.6 | 4.3 | 0.00 | 0.00 | 0.00 | 69 | 1018.4 |
| 20260830224536 | 82 | 187 | 2.6 | 5.2 | 0.00 | 0.00 | 0.00 | 68 | 1018.3 |
| 20260830224035 | 83 | 199 | 2.6 | 5.2 | 0.00 | 0.00 | 0.00 | 68 | 1018.5 |
| 20260830223532 | 83 | 182 | 2.6 | 4.3 | 0.00 | 0.00 | 0.00 | 67 | 1018.6 |
| 20260830223034 | 83 | 191 | 3.5 | 4.3 | 0.00 | 0.00 | 0.00 | 66 | 1018.5 |
| 20260830222533 | 84 | 191 | 2.6 | 4.3 | 0.00 | 0.00 | 0.00 | 66 | 1018.6 |
| 20260830222033 | 84 | 177 | 2.6 | 7.0 | 0.00 | 0.00 | 0.00 | 66 | 1018.5 |
| 20260830221531 | 84 | 150 | 3.5 | 7.0 | 0.00 | 0.00 | 0.00 | 65 | 1018.6 |
| 20260830221031 | 84 | 164 | 4.3 | 7.0 | 0.00 | 0.00 | 0.00 | 65 | 1018.4 |
| 20260830220533 | 84 | 172 | 4.3 | 7.8 | 0.00 | 0.00 | 0.00 | 65 | 1018.4 |
| 20260830220033 | 84 | 171 | 5.2 | 7.8 | 0.00 | 0.00 | 0.00 | 66 | 1018.4 |
| 20260830215530 | 84 | 167 | 5.2 | 7.8 | 0.00 | 0.00 | 0.00 | 67 | 1018.4 |
| 20260830215051 | 84 | 184 | 4.3 | 7.0 | 0.00 | 0.00 | 0.00 | 68 | 1018.3 |
| 20260830214552 | 84 | 163 | 4.3 | 7.8 | 0.00 | 0.00 | 0.00 | 67 | 1018.4 |
| 20260830214032 | 84 | 202 | 5.2 | 7.8 | 0.00 | 0.00 | 0.00 | 66 | 1018.3 |
| 20260830213530 | 85 | 184 | 5.2 | 7.8 | 0.00 | 0.00 | 0.00 | 65 | 1018.3 |
| 20260830213030 | 86 | 176 | 5.2 | 7.8 | 0.00 | 0.00 | 0.00 | 64 | 1018.2 |
| 20260830212529 | 87 | 183 | 6.1 | 7.8 | 0.00 | 0.00 | 0.00 | 62 | 1018.4 |
| 20260830212054 | 87 | 173 | 4.3 | 8.7 | 0.00 | 0.00 | 0.00 | 62 | 1018.3 |
| 20260830211533 | 88 | 169 | 4.3 | 8.7 | 0.00 | 0.00 | 0.00 | 62 | 1018.4 |
| 20260830211032 | 88 | 138 | 6.1 | 8.7 | 0.00 | 0.00 | 0.00 | 60 | 1018.4 |
| 20260830210531 | 90 | 167 | 4.3 | 7.0 | 0.00 | 0.00 | 0.00 | 57 | 1018.3 |
| 20260830210031 | 90 | 171 | 3.5 | 6.1 | 0.00 | 0.00 | 0.00 | 54 | 1018.3 |
| 20260830205554 | 90 | 268 | 2.6 | 4.3 | 0.00 | 0.00 | 0.00 | 51 | 1018.2 |
| 20260830205036 | 91 | 295 | 1.7 | 7.8 | 0.00 | 0.00 | 0.00 | 51 | 1018.3 |
| 20260830204535 | 91 | 254 | 2.6 | 7.8 | 0.00 | 0.00 | 0.00 | 49 | 1018.3 |
| 20260830204034 | 91 | 269 | 3.5 | 6.1 | 0.00 | 0.00 | 0.00 | 49 | 1018.3 |
| 20260830203552 | 91 | 324 | 3.5 | 5.2 | 0.00 | 0.00 | 0.00 | 52 | 1018.4 |
| 20260830203032 | 90 | 311 | 2.6 | 7.0 | 0.00 | 0.00 | 0.00 | 52 | 1018.4 |
| 20260830202534 | 90 | 294 | 1.7 | 7.0 | 0.00 | 0.00 | 0.00 | 53 | 1018.5 |
| 20260830202035 | 89 | 318 | 1.7 | 6.1 | 0.00 | 0.00 | 0.00 | 56 | 1018.4 |
| 20260830201533 | 89 | 261 | 2.6 | 5.2 | 0.00 | 0.00 | 0.00 | 53 | 1018.5 |
| 20260830201034 | 89 | 257 | 1.7 | 4.3 | 0.00 | 0.00 | 0.00 | 52 | 1018.5 |
| 20260830200557 | 89 | 223 | 1.7 | 7.0 | 0.00 | 0.00 | 0.00 | 53 | 1018.4 |
| 20260830200034 | 90 | 229 | 4.3 | 7.0 | 0.00 | 0.00 | 0.00 | 54 | 1018.5 |
| 20260830195534 | 89 | 254 | 1.7 | 7.0 | 0.00 | 0.00 | 0.00 | 55 | 1018.4 |
| 20260830195034 | 89 | 313 | 2.6 | 7.0 | 0.00 | 0.00 | 0.00 | 52 | 1018.6 |
| 20260830194557 | 89 | 250 | 4.3 | 7.0 | 0.00 | 0.00 | 0.00 | 56 | 1018.6 |
| 20260830194036 | 89 | 342 | 0.9 | 7.0 | 0.00 | 0.00 | 0.00 | 56 | 1018.6 |
| 20260830193534 | 90 | 321 | 3.5 | 7.0 | 0.00 | 0.00 | 0.00 | 56 | 1018.7 |
| 20260830193035 | 90 | 286 | 1.7 | 7.0 | 0.00 | 0.00 | 0.00 | 55 | 1018.7 |
| 20260830192533 | 90 | 317 | 2.6 | 7.0 | 0.00 | 0.00 | 0.00 | 55 | 1018.8 |
| 20260830192034 | 90 | 297 | 0.9 | 7.8 | 0.00 | 0.00 | 0.00 | 55 | 1018.8 |
| 20260830191532 | 90 | 296 | 4.3 | 7.8 | 0.00 | 0.00 | 0.00 | 55 | 1019.0 |
| 20260830191036 | 90 | 215 | 1.7 | 7.0 | 0.00 | 0.00 | 0.00 | 53 | 1019.1 |
| 20260830190533 | 91 | 259 | 1.7 | 7.0 | 0.00 | 0.00 | 0.00 | 55 | 1019.2 |
| 20260830190034 | 90 | 267 | 1.7 | 7.0 | 0.00 | 0.00 | 0.00 | 55 | 1019.3 |
| 20260830185532 | 90 | 258 | 1.7 | 7.8 | 0.00 | 0.00 | 0.00 | 57 | 1019.3 |
| 20260830185032 | 89 | 251 | 2.6 | 7.8 | 0.00 | 0.00 | 0.00 | 58 | 1019.4 |
| 20260830184531 | 89 | 217 | 2.6 | 7.0 | 0.00 | 0.00 | 0.00 | 57 | 1019.4 |
| 20260830184032 | 89 | 239 | 3.5 | 7.0 | 0.00 | 0.00 | 0.00 | 59 | 1019.6 |
| 20260830183531 | 88 | 257 | 3.5 | 7.0 | 0.00 | 0.00 | 0.00 | 60 | 1019.7 |
| 20260830183031 | 88 | 250 | 1.7 | 8.7 | 0.00 | 0.00 | 0.00 | 59 | 1019.7 |
| 20260830182528 | 89 | 199 | 6.1 | 8.7 | 0.00 | 0.00 | 0.00 | 58 | 1019.9 |
| 20260830182052 | 88 | 202 | 5.2 | 7.8 | 0.00 | 0.00 | 0.00 | 60 | 1020.0 |
| 20260830181531 | 88 | 145 | 1.7 | 6.1 | 0.00 | 0.00 | 0.00 | 60 | 1020.1 |
| 20260830181032 | 88 | 209 | 2.6 | 9.6 | 0.00 | 0.00 | 0.00 | 59 | 1020.2 |
| 20260830180554 | 87 | 216 | 4.3 | 9.6 | 0.00 | 0.00 | 0.00 | 61 | 1020.2 |
| 20260830180034 | 87 | 213 | 3.5 | 8.7 | 0.00 | 0.00 | 0.00 | 63 | 1020.2 |
| 20260830175532 | 86 | 202 | 4.3 | 8.7 | 0.00 | 0.00 | 0.00 | 61 | 1020.2 |
| 20260830175036 | 86 | 205 | 3.5 | 7.8 | 0.00 | 0.00 | 0.00 | 64 | 1020.3 |
| 20260830174536 | 86 | 224 | 0.9 | 4.3 | 0.00 | 0.00 | 0.00 | 64 | 1020.3 |
| 20260830174036 | 86 | 243 | 1.7 | 7.0 | 0.00 | 0.00 | 0.00 | 63 | 1020.4 |
| 20260830173534 | 86 | 216 | 2.6 | 7.0 | 0.00 | 0.00 | 0.00 | 63 | 1020.5 |
| 20260830173100 | 85 | 223 | 2.6 | 7.8 | 0.00 | 0.00 | 0.00 | 66 | 1020.6 |
| 20260830172536 | 84 | 252 | 2.6 | 7.8 | 0.00 | 0.00 | 0.00 | 67 | 1020.6 |
| 20260830172102 | 83 | 265 | 2.6 | 8.7 | 0.00 | 0.00 | 0.00 | 67 | 1020.7 |
| 20260830171538 | 83 | 180 | 5.2 | 8.7 | 0.00 | 0.00 | 0.00 | 67 | 1020.7 |
| 20260830171038 | 83 | 185 | 4.3 | 7.8 | 0.00 | 0.00 | 0.00 | 66 | 1020.8 |
| 20260830170559 | 84 | 237 | 4.3 | 13.9 | 0.00 | 0.00 | 0.00 | 66 | 1020.8 |
| 20260830170038 | 84 | 187 | 5.2 | 13.9 | 0.00 | 0.00 | 0.00 | 64 | 1020.7 |
| 20260830165540 | 84 | 185 | 4.3 | 12.2 | 0.00 | 0.00 | 0.00 | 64 | 1020.7 |
| 20260830165105 | 84 | 192 | 6.1 | 12.2 | 0.00 | 0.00 | 0.00 | 67 | 1020.9 |
| 20260830164542 | 84 | 189 | 4.3 | 9.6 | 0.00 | 0.00 | 0.00 | 66 | 1020.9 |
| 20260830164040 | 84 | 220 | 5.2 | 10.4 | 0.00 | 0.00 | 0.00 | 66 | 1020.9 |
| 20260830163538 | 84 | 215 | 5.2 | 11.3 | 0.00 | 0.00 | 0.00 | 64 | 1020.9 |
| 20260830163104 | 84 | 167 | 7.0 | 11.3 | 0.00 | 0.00 | 0.00 | 65 | 1020.9 |
| 20260830162540 | 84 | 217 | 7.0 | 11.3 | 0.00 | 0.00 | 0.00 | 66 | 1021.0 |
| 20260830162026 | 83 | 171 | 7.0 | 11.3 | 0.00 | 0.00 | 0.00 | 68 | 1021.0 |
| 20260830161524 | 82 | 198 | 5.2 | 10.4 | 0.00 | 0.00 | 0.00 | 67 | 1021.1 |
| 20260830161043 | 83 | 188 | 7.8 | 10.4 | 0.00 | 0.00 | 0.00 | 66 | 1021.2 |
| 20260830160542 | 83 | 186 | 6.1 | 9.6 | 0.00 | 0.00 | 0.00 | 67 | 1021.1 |
| 20260830160105 | 82 | 182 | 5.2 | 8.7 | 0.00 | 0.00 | 0.00 | 70 | 1021.2 |
| 20260830155543 | 82 | 192 | 3.5 | 8.7 | 0.00 | 0.00 | 0.00 | 69 | 1021.1 |
| 20260830155043 | 81 | 205 | 3.5 | 10.4 | 0.00 | 0.00 | 0.00 | 71 | 1021.2 |
| 20260830154540 | 81 | 190 | 7.0 | 10.4 | 0.00 | 0.00 | 0.00 | 71 | 1021.2 |
| 20260830154041 | 80 | 183 | 6.1 | 10.4 | 0.00 | 0.00 | 0.00 | 71 | 1021.2 |
| 20260830153604 | 80 | 190 | 5.2 | 10.4 | 0.00 | 0.00 | 0.00 | 72 | 1021.2 |
| 20260830153042 | 80 | 177 | 7.8 | 12.2 | 0.00 | 0.00 | 0.00 | 73 | 1021.3 |
| 20260830152540 | 79 | 178 | 7.0 | 9.6 | 0.00 | 0.00 | 0.00 | 75 | 1021.5 |
| 20260830152040 | 78 | 198 | 5.2 | 7.8 | 0.00 | 0.00 | 0.00 | 76 | 1021.6 |
| 20260830151539 | 77 | 209 | 2.6 | 6.1 | 0.00 | 0.00 | 0.00 | 78 | 1021.7 |
| 20260830151039 | 77 | 196 | 2.6 | 6.1 | 0.00 | 0.00 | 0.00 | 77 | 1021.6 |
| 20260830150536 | 77 | 230 | 1.7 | 6.1 | 0.00 | 0.00 | 0.00 | 77 | 1021.6 |
| 20260830150041 | 76 | 232 | 1.7 | 5.2 | 0.00 | 0.00 | 0.00 | 77 | 1021.6 |
| 20260830145539 | 76 | 240 | 1.7 | 5.2 | 0.00 | 0.00 | 0.00 | 78 | 1021.6 |
| 20260830145039 | 76 | 227 | 0.9 | 4.3 | 0.00 | 0.00 | 0.00 | 79 | 1021.6 |
| 20260830144536 | 76 | 208 | 1.7 | 4.3 | 0.00 | 0.00 | 0.00 | 78 | 1021.5 |
| 20260830144037 | 76 | 254 | 1.7 | 6.1 | 0.00 | 0.00 | 0.00 | 79 | 1021.6 |
| 20260830143535 | 76 | 211 | 2.6 | 7.0 | 0.00 | 0.00 | 0.00 | 78 | 1021.6 |
| 20260830143035 | 76 | 210 | 4.3 | 7.0 | 0.00 | 0.00 | 0.00 | 78 | 1021.6 |
| 20260830142533 | 76 | 252 | 0.9 | 3.5 | 0.00 | 0.00 | 0.00 | 79 | 1021.5 |
| 20260830142034 | 76 | 252 | 0.9 | 6.1 | 0.00 | 0.00 | 0.00 | 79 | 1021.5 |
| 20260830141532 | 76 | 184 | 0.9 | 6.1 | 0.00 | 0.00 | 0.00 | 79 | 1021.5 |
| 20260830141031 | 76 | 184 | 2.6 | 6.1 | 0.00 | 0.00 | 0.00 | 79 | 1021.5 |
| 20260830140529 | 75 | 211 | 1.7 | 6.1 | 0.00 | 0.00 | 0.00 | 80 | 1021.3 |
| 20260830140054 | 75 | 218 | 2.6 | 6.1 | 0.00 | 0.00 | 0.00 | 80 | 1021.3 |
| 20260830135530 | 74 | 193 | 1.7 | 5.2 | 0.00 | 0.00 | 0.00 | 81 | 1021.4 |
| 20260830135050 | 74 | 237 | 2.6 | 4.3 | 0.00 | 0.00 | 0.00 | 81 | 1021.3 |
| 20260830134532 | 73 | 246 | 0.9 | 4.3 | 0.00 | 0.00 | 0.00 | 81 | 1021.3 |
| 20260830134057 | 72 | 248 | 0.9 | 4.3 | 0.00 | 0.00 | 0.00 | 82 | 1021.3 |
| 20260830133535 | 72 | 223 | 2.6 | 4.3 | 0.00 | 0.00 | 0.00 | 82 | 1021.5 |
| 20260830133034 | 71 | 200 | 1.7 | 3.5 | 0.00 | 0.00 | 0.00 | 82 | 1021.5 |
| 20260830132533 | 71 | 182 | 2.6 | 3.5 | 0.00 | 0.00 | 0.00 | 82 | 1021.5 |
| 20260830132034 | 70 | 182 | 0.9 | 3.5 | 0.00 | 0.00 | 0.00 | 83 | 1021.6 |
| 20260830131534 | 70 | 182 | 1.7 | 3.5 | 0.00 | 0.00 | 0.00 | 82 | 1021.6 |
| 20260830131038 | 70 | 182 | 1.7 | 3.5 | 0.00 | 0.00 | 0.00 | 82 | 1021.7 |
| 20260830130535 | 70 | 182 | 1.7 | 4.3 | 0.00 | 0.00 | 0.00 | 82 | 1021.7 |
| 20260830130035 | 70 | 182 | 2.6 | 5.2 | 0.00 | 0.00 | 0.00 | 81 | 1021.7 |